sat.trackr.live / text

‹ back to catalog

STARLINK-4071

NORAD 52671 · 2022-053R

PAYLOAD ACTIVE UNKNOWN

§ Identity

Operator
Country
US
Launch date
2022-05-18
Launch site
AFETR
Launch vehicle
Mass (kg)
RCS (m²)

Purposes: comms

External: N2YO · Heavens-Above · Gunter

§ Orbital elements

Epoch: 2026-09-19T23:48:09.156096Z

Period
95.44 min
Inclination
53.1613°
Eccentricity
0.0001301
Mean motion
15.08812845 rev/d
Perigee alt
538.9 km
Apogee alt
540.7 km
Semi-major
6,918.0 km
B*
1.8596e-4
RAAN
1.2069°
Arg perigee
93.8953°
Mean anomaly
266.2188°
Rev number
24,037

§ Raw data

STARLINK-40711 52671U 22053R   26262.99177264  .00002671  00000+0  18596-3 0  99932 52671  53.1613   1.2069 0001301  93.8953 266.2188 15.08812845240373

JSON: /api/v1/satellites/52671 · /tle

For live sub-satellite position, see the globe view (requires WebGL).

§ Visibility from observer

Set your observer location to see the next 7 days of passes ≥ 10°. The values pass through the URL so the page stays shareable.

No JS? Fill the form by hand. The geolocation button needs JavaScript.